{"data":{"norad_id":47827,"intl_designator":"2021-018AS","name":"STARLINK-2413","alt_names":[],"object_type":"PAYLOAD","status":"ACTIVE","operator":null,"country":"US","launch_date":"2021-03-11","launch_site_code":"AFETR","launch_vehicle":null,"mission":null,"orbit_class":"UNKNOWN","rcs_meters":null,"size_class":null,"mass_kg":null,"dimensions":null,"purposes":["comms"],"wikipedia_slug":null,"has_3d_model":false,"image_url":null,"decayed_at":null,"tle_current":{"epoch":"2026-05-24T17:01:13.611648Z","epoch_age_seconds":110711,"freshness":"FRESH","line1":"1 47827U 21018AS  26144.70918532  .00007789  00000+0  26233-3 0  9991","line2":"2 47827  53.1579 249.0219 0001099  84.5446 275.5681 15.31722209288427","mean_motion":15.31722209,"eccentricity":0.0001099,"inclination_deg":53.1579,"raan_deg":249.0219,"arg_perigee_deg":84.5446,"mean_anomaly_deg":275.5681,"bstar":0.00026233,"rev_number":28842,"period_min":94.011824829524,"perigee_km":469.92110784618,"apogee_km":471.4264764583,"semimajor_km":6848.8107921522,"source":"CELESTRAK","updated_at":"2026-05-25T13:38:16.605002Z"}}}